Location: Kampernieuwstad
(52.5135°N, 5.8742°E)
Time: 07:54:05
(UTC+00:00)

EP 1 - Pass Details

Date: 15 May 2026
Orbit: 314 x 1668 km, 63.3° (Epoch: 25 August)

Event Time Altitude Azimuth Distance (km) Brightness Sun altitude
Rises 20:08:20 0° 315° (NW) 2,114 11.2 -5.9°
Reaches altitude 10° 20:10:20 10° 318° (NW) 1,236 9.0 -6.1°
Maximum altitude 20:12:55 64° 41° (NE) 359 4.4 -6.4°
Drops below altitude 10° 20:15:35 10° 125° (SE) 1,269 6.5 -6.7°
Enters shadow 20:15:44 - 125° (SE) 1,335 6.6 -6.7°
